WETTER-BERLIN-ONLINE
Wetterdaten: aktuell Donnerstag, 22.02.2018 22:40
Datum Zeit Temp.auen Rel. Feuchte Luftdruck Regen Wind Richtung Richtung Sonnenschein T Regen Taupunkt Windchill
22.02.2018 22:40 -0,2 C 62 % 1025,7 hPa 0,0 l/m 0,1 km/h (0 Bft) N-NO 15 0 min 0 min -6,6 C -0,2 C
22.02.2018 22:35 -0,2 C 62 % 1025,7 hPa 0,0 l/m 0,1 km/h (0 Bft) N-NO 15 0 min 0 min -6,6 C -0,2 C
22.02.2018 22:30 -0,3 C 62 % 1025,7 hPa 0,0 l/m 0,6 km/h (0 Bft) N-NO 15 0 min 0 min -6,7 C -0,3 C
22.02.2018 22:25 -0,3 C 62 % 1025,7 hPa 0,0 l/m 0,6 km/h (0 Bft) N-NO 15 0 min 0 min -6,7 C -0,3 C
22.02.2018 22:21 -0,3 C 62 % 1025,7 hPa 0,0 l/m 0,6 km/h (0 Bft) N-NO 15 0 min 0 min -6,7 C -0,3 C
22.02.2018 22:16 -0,3 C 62 % 1025,7 hPa 0,0 l/m 5,0 km/h (1 Bft) N-NO 15 0 min 0 min -6,7 C -1,9 C
22.02.2018 22:11 -0,3 C 62 % 1025,7 hPa 0,0 l/m 2,8 km/h (1 Bft) N-NO 15 0 min 0 min -6,7 C -0,3 C
22.02.2018 22:05 -0,3 C 61 % 1025,7 hPa 0,0 l/m 0,6 km/h (0 Bft) N-NO 15 0 min 0 min -6,9 C -0,3 C
22.02.2018 22:00 -0,3 C 61 % 1025,7 hPa 0,0 l/m 0,5 km/h (0 Bft) N-NO 15 0 min 0 min -6,9 C -0,3 C
22.02.2018 21:55 -0,3 C 61 % 1025,7 hPa 0,0 l/m 0,0 km/h (0 Bft) N-NO 15 0 min 0 min -6,9 C -0,3 C
22.02.2018 21:50 -0,3 C 61 % 1025,7 hPa 0,0 l/m 0,2 km/h (0 Bft) N-NO 15 0 min 0 min -6,9 C -0,3 C
22.02.2018 21:45 -0,4 C 61 % 1025,7 hPa 0,0 l/m 0,0 km/h (0 Bft) N-NO 15 0 min 0 min -7,0 C -0,4 C
22.02.2018 21:41 -0,4 C 61 % 1025,7 hPa 0,0 l/m 0,3 km/h (0 Bft) N-NO 15 0 min 0 min -7,0 C -0,4 C
22.02.2018 21:36 -0,4 C 61 % 1025,7 hPa 0,0 l/m 0,0 km/h (0 Bft) N-NO 15 0 min 0 min -7,0 C -0,4 C
22.02.2018 21:31 -0,5 C 61 % 1025,7 hPa 0,0 l/m 0,0 km/h (0 Bft) N-NO 15 0 min 0 min -7,1 C -0,5 C
22.02.2018 21:25 -0,5 C 61 % 1025,7 hPa 0,0 l/m 0,1 km/h (0 Bft) N-NO 15 0 min 0 min -7,1 C -0,5 C
22.02.2018 21:20 -0,5 C 61 % 1025,7 hPa 0,0 l/m 0,0 km/h (0 Bft) N-NO 15 0 min 0 min -7,1 C -0,5 C
22.02.2018 21:15 -0,5 C 61 % 1024,7 hPa 0,0 l/m 0,0 km/h (0 Bft) N-NO 15 0 min 0 min -7,1 C -0,5 C
22.02.2018 21:10 -0,5 C 61 % 1024,7 hPa 0,0 l/m 0,0 km/h (0 Bft) N-NO 15 0 min 0 min -7,1 C -0,5 C
22.02.2018 21:06 -0,4 C 60 % 1024,7 hPa 0,0 l/m 0,6 km/h (0 Bft) N-NO 15 0 min 0 min -7,2 C -0,4 C
22.02.2018 21:01 -0,3 C 60 % 1024,7 hPa 0,0 l/m 0,1 km/h (0 Bft) N-NO 15 0 min 0 min -7,1 C -0,3 C
22.02.2018 20:56 -0,2 C 60 % 1024,7 hPa 0,0 l/m 3,2 km/h (1 Bft) N-NO 15 0 min 0 min -7,0 C -0,2 C
22.02.2018 20:50 -0,2 C 60 % 1024,7 hPa 0,0 l/m 3,0 km/h (1 Bft) N-NO 15 0 min 0 min -7,0 C -0,2 C
22.02.2018 20:45 -0,1 C 60 % 1024,7 hPa 0,0 l/m 0,0 km/h (0 Bft) N-NO 15 0 min 0 min -6,9 C -0,1 C
22.02.2018 20:40 0,0 C 60 % 1024,7 hPa 0,0 l/m 0,4 km/h (0 Bft) N-NO 15 0 min 0 min -6,8 C 0,0 C
22.02.2018 20:35 0,0 C 60 % 1024,7 hPa 0,0 l/m 5,2 km/h (1 Bft) N-NO 15 0 min 0 min -6,8 C -1,7 C
22.02.2018 20:30 0,0 C 60 % 1024,7 hPa 0,0 l/m 4,4 km/h (1 Bft) N-NO 15 0 min 0 min -6,8 C 0,0 C
22.02.2018 20:26 0,1 C 60 % 1024,7 hPa 0,0 l/m 4,3 km/h (1 Bft) N-NO 15 0 min 0 min -6,7 C 0,1 C
22.02.2018 20:21 0,1 C 60 % 1024,7 hPa 0,0 l/m 5,0 km/h (1 Bft) N-NO 15 0 min 0 min -6,7 C -1,5 C
22.02.2018 20:16 0,1 C 60 % 1024,7 hPa 0,0 l/m 4,1 km/h (1 Bft) N-NO 15 0 min 0 min -6,7 C 0,1 C
22.02.2018 20:10 0,2 C 59 % 1024,7 hPa 0,0 l/m 2,4 km/h (1 Bft) N-NO 15 0 min 0 min -6,8 C 0,2 C
22.02.2018 20:05 0,2 C 59 % 1025,7 hPa 0,0 l/m 3,3 km/h (1 Bft) N-NO 15 0 min 0 min -6,8 C 0,2 C
22.02.2018 20:00 0,3 C 59 % 1025,7 hPa 0,0 l/m 1,5 km/h (1 Bft) N-NO 15 0 min 0 min -6,8 C 0,3 C
22.02.2018 19:55 0,3 C 59 % 1025,7 hPa 0,0 l/m 2,8 km/h (1 Bft) N-NO 15 0 min 0 min -6,8 C 0,3 C
22.02.2018 19:50 0,3 C 59 % 1025,7 hPa 0,0 l/m 2,2 km/h (1 Bft) N-NO 15 0 min 0 min -6,8 C 0,3 C
22.02.2018 19:45 0,4 C 59 % 1024,7 hPa 0,0 l/m 4,3 km/h (1 Bft) N-NO 15 0 min 0 min -6,7 C 0,4 C
22.02.2018 19:40 0,4 C 59 % 1025,7 hPa 0,0 l/m 4,3 km/h (1 Bft) N-NO 15 0 min 0 min -6,7 C 0,4 C
22.02.2018 19:35 0,5 C 59 % 1024,7 hPa 0,0 l/m 4,3 km/h (1 Bft) N-NO 15 0 min 0 min -6,6 C 0,5 C
22.02.2018 19:31 0,5 C 59 % 1024,7 hPa 0,0 l/m 0,5 km/h (0 Bft) N-NO 15 0 min 0 min -6,6 C 0,5 C
22.02.2018 19:26 0,5 C 58 % 1024,7 hPa 0,0 l/m 3,1 km/h (1 Bft) N-NO 15 0 min 0 min -6,8 C 0,5 C
22.02.2018 19:21 0,6 C 58 % 1024,7 hPa 0,0 l/m 5,2 km/h (1 Bft) N-NO 15 0 min 0 min -6,7 C -1,0 C
22.02.2018 19:15 0,6 C 58 % 1024,7 hPa 0,0 l/m 5,0 km/h (1 Bft) N-NO 15 0 min 0 min -6,7 C -0,9 C
22.02.2018 19:10 0,6 C 58 % 1024,7 hPa 0,0 l/m 0,0 km/h (0 Bft) N-NO 15 0 min 0 min -6,7 C 0,6 C
22.02.2018 19:05 0,6 C 58 % 1024,7 hPa 0,0 l/m 7,4 km/h (2 Bft) N 5 0 min 0 min -6,7 C -1,8 C
22.02.2018 19:00 0,6 C 58 % 1024,7 hPa 0,0 l/m 5,4 km/h (2 Bft) N 5 0 min 0 min -6,7 C -1,1 C
22.02.2018 18:56 0,6 C 58 % 1024,7 hPa 0,0 l/m 3,3 km/h (1 Bft) N 5 0 min 0 min -6,7 C 0,6 C
22.02.2018 18:51 0,6 C 58 % 1024,7 hPa 0,0 l/m 10,6 km/h (2 Bft) N22.5 10 0 min 0 min -6,7 C -2,7 C
22.02.2018 18:46 0,7 C 58 % 1024,7 hPa 0,0 l/m 6,3 km/h (2 Bft) N-NO 15 0 min 0 min -6,6 C -1,3 C
22.02.2018 18:40 0,7 C 58 % 1024,7 hPa 0,0 l/m 0,8 km/h (0 Bft) N22.5 360 0 min 0 min -6,6 C 0,7 C
22.02.2018 18:35 0,7 C 58 % 1024,7 hPa 0,0 l/m 8,7 km/h (2 Bft) N-NO22.5 15 0 min 0 min -6,6 C -2,1 C
22.02.2018 18:30 0,9 C 58 % 1024,7 hPa 0,0 l/m 8,0 km/h (2 Bft) N-NO22.5 25 0 min 0 min -6,4 C -1,7 C
22.02.2018 18:25 0,9 C 58 % 1024,7 hPa 0,0 l/m 8,9 km/h (2 Bft) N-NO22.5 25 0 min 0 min -6,4 C -1,9 C
22.02.2018 18:20 1,0 C 57 % 1024,7 hPa 0,0 l/m 1,9 km/h (1 Bft) N-NO22.5 25 0 min 0 min -6,5 C 1,0 C
22.02.2018 18:16 1,1 C 58 % 1024,7 hPa 0,0 l/m 8,3 km/h (2 Bft) NO22.5 50 0 min 0 min -6,2 C -1,5 C
22.02.2018 18:11 1,1 C 58 % 1024,7 hPa 0,0 l/m 11,0 km/h (2 Bft) N-NO22.5 25 0 min 0 min -6,2 C -2,2 C
22.02.2018 18:05 1,2 C 57 % 1024,7 hPa 0,0 l/m 8,2 km/h (2 Bft) N22.5 5 0 min 0 min -6,4 C -1,4 C
22.02.2018 18:00 1,3 C 57 % 1024,7 hPa 0,0 l/m 5,7 km/h (2 Bft) N 360 0 min 0 min -6,3 C -0,4 C
22.02.2018 17:55 1,4 C 57 % 1024,7 hPa 0,0 l/m 1,0 km/h (0 Bft) N 355 0 min 0 min -6,2 C 1,4 C
22.02.2018 17:50 1,5 C 57 % 1024,7 hPa 0,0 l/m 1,0 km/h (0 Bft) N 355 0 min 0 min -6,1 C 1,5 C
22.02.2018 17:45 1,5 C 57 % 1024,7 hPa 0,0 l/m 0,0 km/h (0 Bft) N 355 0 min 0 min -6,1 C 1,5 C
22.02.2018 17:41 1,6 C 57 % 1024,7 hPa 0,0 l/m 0,6 km/h (0 Bft) N 355 0 min 0 min -6,0 C 1,6 C
22.02.2018 17:36 1,6 C 57 % 1024,7 hPa 0,0 l/m 0,4 km/h (0 Bft) N-NW 340 0 min 0 min -6,0 C 1,6 C
22.02.2018 17:31 1,6 C 57 % 1024,7 hPa 0,0 l/m 0,7 km/h (0 Bft) N-NW 345 0 min 0 min -6,0 C 1,6 C
22.02.2018 17:25 1,6 C 56 % 1024,7 hPa 0,0 l/m 1,5 km/h (1 Bft) N-NW45 345 0 min 0 min -6,2 C 1,6 C
22.02.2018 17:20 1,6 C 56 % 1024,7 hPa 0,0 l/m 0,5 km/h (0 Bft) N-NO 15 0 min 0 min -6,2 C 1,6 C
22.02.2018 17:15 1,7 C 56 % 1024,7 hPa 0,0 l/m 4,6 km/h (1 Bft) N22.5 360 0 min 0 min -6,1 C 0,5 C
22.02.2018 17:10 1,7 C 56 % 1024,7 hPa 0,0 l/m 0,4 km/h (0 Bft) NO 40 0 min 0 min -6,1 C 1,7 C
22.02.2018 17:06 1,8 C 55 % 1024,7 hPa 0,0 l/m 7,9 km/h (2 Bft) N45 10 0 min 0 min -6,3 C -0,6 C
22.02.2018 17:01 1,8 C 55 % 1024,7 hPa 0,0 l/m 3,6 km/h (1 Bft) N-NW 345 0 min 0 min -6,3 C 1,8 C
22.02.2018 16:56 1,8 C 55 % 1024,7 hPa 0,0 l/m 0,1 km/h (0 Bft) N-NW 340 0 min 0 min -6,3 C 1,8 C
22.02.2018 16:50 1,9 C 54 % 1024,7 hPa 0,0 l/m 4,5 km/h (1 Bft) N45 360 0 min 0 min -6,4 C 1,9 C
22.02.2018 16:45 2,0 C 54 % 1024,7 hPa 0,0 l/m 7,6 km/h (2 Bft) N45 355 0 min 0 min -6,3 C -0,3 C
22.02.2018 16:40 2,0 C 54 % 1024,7 hPa 0,0 l/m 2,5 km/h (1 Bft) N45 5 0 min 0 min -6,3 C 2,0 C
22.02.2018 16:35 2,2 C 53 % 1024,7 hPa 0,0 l/m 5,5 km/h (2 Bft) N22.5 355 0 min 0 min -6,4 C 0,7 C
22.02.2018 16:30 2,2 C 53 % 1024,7 hPa 0,0 l/m 11,5 km/h (2 Bft) N45 5 0 min 0 min -6,4 C -1,0 C
22.02.2018 16:26 2,2 C 53 % 1024,7 hPa 0,0 l/m 5,6 km/h (2 Bft) N45 355 0 min 0 min -6,4 C 0,7 C
22.02.2018 16:21 2,3 C 52 % 1024,7 hPa 0,0 l/m 7,5 km/h (2 Bft) N67.5 5 0 min 0 min -6,5 C 0,1 C
22.02.2018 16:15 2,4 C 52 % 1024,7 hPa 0,0 l/m 4,2 km/h (1 Bft) N-NO 20 0 min 0 min -6,4 C 2,4 C
22.02.2018 16:10 2,5 C 52 % 1024,7 hPa 0,0 l/m 10,8 km/h (2 Bft) N-NW67.5 345 0 min 0 min -6,3 C -0,5 C
22.02.2018 16:05 2,5 C 52 % 1024,7 hPa 0,0 l/m 7,9 km/h (2 Bft) N-NO67.5 20 0 min 0 min -6,3 C 0,2 C
22.02.2018 16:00 2,6 C 52 % 1024,7 hPa 0,0 l/m 5,7 km/h (2 Bft) N67.5 350 0 min 0 min -6,2 C 1,1 C
22.02.2018 15:55 2,7 C 51 % 1024,7 hPa 0,0 l/m 6,7 km/h (2 Bft) N-NW45 340 0 min 0 min -6,4 C 0,8 C
22.02.2018 15:51 2,7 C 51 % 1024,7 hPa 0,0 l/m 8,6 km/h (2 Bft) N22.5 10 0 min 0 min -6,4 C 0,3 C
22.02.2018 15:46 2,8 C 51 % 1024,7 hPa 0,0 l/m 5,6 km/h (2 Bft) N22.5 350 0 min 0 min -6,3 C 1,3 C
22.02.2018 15:41 2,8 C 51 % 1024,7 hPa 0,0 l/m 2,1 km/h (1 Bft) N-NW22.5 345 0 min 0 min -6,3 C 2,8 C
22.02.2018 15:35 2,8 C 51 % 1024,7 hPa 0,0 l/m 6,5 km/h (2 Bft) N45 355 0 min 0 min -6,3 C 1,0 C
22.02.2018 15:30 2,9 C 51 % 1024,7 hPa 0,0 l/m 8,4 km/h (2 Bft) N-NO45 25 0 min 0 min -6,2 C 0,6 C
22.02.2018 15:25 3,0 C 51 % 1024,7 hPa 0,0 l/m 9,2 km/h (2 Bft) N67.5 355 0 min 0 min -6,1 C 0,5 C
22.02.2018 15:20 3,0 C 51 % 1024,7 hPa 0,0 l/m 2,7 km/h (1 Bft) N45 350 0 min 0 min -6,1 C 3,0 C
22.02.2018 15:16 3,2 C 51 % 1024,7 hPa 0,0 l/m 8,6 km/h (2 Bft) N-NW45 345 0 min 0 min -5,9 C 0,9 C
22.02.2018 15:11 3,2 C 51 % 1024,7 hPa 0,0 l/m 13,6 km/h (3 Bft) N-NW45 340 0 min 0 min -5,9 C -0,2 C
22.02.2018 15:06 3,2 C 51 % 1024,7 hPa 0,0 l/m 9,7 km/h (2 Bft) N67.5 355 0 min 0 min -5,9 C 0,6 C
22.02.2018 15:00 3,3 C 51 % 1024,7 hPa 0,0 l/m 9,3 km/h (2 Bft) N45 10 0 min 0 min -5,8 C 0,8 C
22.02.2018 14:55 3,4 C 51 % 1024,7 hPa 0,0 l/m 10,0 km/h (2 Bft) N22.5 5 0 min 0 min -5,8 C 0,7 C
22.02.2018 14:50 3,4 C 52 % 1024,7 hPa 0,0 l/m 6,1 km/h (2 Bft) N22.5 360 0 min 0 min -5,5 C 1,8 C
22.02.2018 14:45 3,4 C 52 % 1024,7 hPa 0,0 l/m 0,6 km/h (0 Bft) N 355 0 min 0 min -5,5 C 3,4 C
22.02.2018 14:40 3,4 C 51 % 1024,7 hPa 0,0 l/m 5,7 km/h (2 Bft) N22.5 10 0 min 0 min -5,8 C 2,0 C
22.02.2018 14:36 3,5 C 51 % 1024,7 hPa 0,0 l/m 7,5 km/h (2 Bft) N22.5 5 0 min 0 min -5,7 C 1,5 C
22.02.2018 14:31 3,5 C 51 % 1024,7 hPa 0,0 l/m 9,1 km/h (2 Bft) NO45 35 0 min 0 min -5,7 C 1,1 C
22.02.2018 14:26 3,6 C 52 % 1024,7 hPa 0,0 l/m 7,8 km/h (2 Bft) N67.5 10 0 min 0 min -5,3 C 1,5 C
22.02.2018 14:20 3,6 C 52 % 1024,7 hPa 0,0 l/m 8,0 km/h (2 Bft) N-NO45 15 0 min 0 min -5,3 C 1,5 C
22.02.2018 14:15 3,6 C 52 % 1024,7 hPa 0,0 l/m 6,4 km/h (2 Bft) N22.5 360 0 min 0 min -5,3 C 2,0 C
22.02.2018 14:10 3,7 C 52 % 1024,7 hPa 0,0 l/m 6,0 km/h (2 Bft) N-NO22.5 15 0 min 0 min -5,2 C 2,2 C
22.02.2018 14:05 3,8 C 52 % 1024,7 hPa 0,0 l/m 9,2 km/h (2 Bft) N-NO67.5 30 0 min 0 min -5,1 C 1,4 C
22.02.2018 14:01 3,8 C 52 % 1024,7 hPa 0,0 l/m 7,8 km/h (2 Bft) N45 350 0 min 0 min -5,1 C 1,8 C
22.02.2018 13:56 3,8 C 52 % 1025,7 hPa 0,0 l/m 7,2 km/h (2 Bft) NO22.5 55 0 min 0 min -5,1 C 2,0 C
22.02.2018 13:51 3,9 C 52 % 1025,7 hPa 0,0 l/m 10,0 km/h (2 Bft) N-NO45 20 0 min 0 min -5,0 C 1,3 C
22.02.2018 13:45 3,8 C 52 % 1025,7 hPa 0,0 l/m 1,0 km/h (0 Bft) NO22.5 40 0 min 0 min -5,1 C 3,8 C
22.02.2018 13:40 3,8 C 53 % 1025,7 hPa 0,0 l/m 9,0 km/h (2 Bft) NO45 45 0 min 0 min -4,9 C 1,5 C
22.02.2018 13:35 3,9 C 53 % 1025,7 hPa 0,0 l/m 8,5 km/h (2 Bft) NO45 45 0 min 0 min -4,8 C 1,7 C
22.02.2018 13:30 3,9 C 54 % 1025,7 hPa 0,0 l/m 6,8 km/h (2 Bft) N-NO45 30 0 min 0 min -4,5 C 2,2 C
22.02.2018 13:25 3,9 C 54 % 1025,7 hPa 0,0 l/m 10,0 km/h (2 Bft) O-NO22.5 65 0 min 0 min -4,5 C 1,3 C
22.02.2018 13:21 3,8 C 55 % 1025,7 hPa 0,0 l/m 6,8 km/h (2 Bft) NO22.5 35 0 min 0 min -4,4 C 2,1 C
22.02.2018 13:16 3,7 C 55 % 1025,7 hPa 0,0 l/m 6,5 km/h (2 Bft) NO67.5 45 0 min 0 min -4,5 C 2,1 C
22.02.2018 13:10 3,7 C 55 % 1025,7 hPa 0,0 l/m 7,0 km/h (2 Bft) N45 360 0 min 0 min -4,5 C 1,9 C
22.02.2018 13:05 3,8 C 55 % 1025,7 hPa 0,0 l/m 6,1 km/h (2 Bft) N22.5 5 0 min 0 min -4,4 C 2,3 C
22.02.2018 13:00 3,8 C 56 % 1025,7 hPa 0,0 l/m 6,1 km/h (2 Bft) N22.5 5 0 min 0 min -4,2 C 2,3 C
22.02.2018 12:55 3,8 C 56 % 1025,7 hPa 0,0 l/m 8,1 km/h (2 Bft) N22.5 5 0 min 0 min -4,2 C 1,7 C
22.02.2018 12:50 3,8 C 56 % 1025,7 hPa 0,0 l/m 6,1 km/h (2 Bft) N67.5 360 0 min 0 min -4,2 C 2,3 C
22.02.2018 12:46 3,9 C 57 % 1025,7 hPa 0,0 l/m 9,8 km/h (2 Bft) N22.5 5 0 min 0 min -3,8 C 1,4 C
22.02.2018 12:41 4,0 C 59 % 1025,7 hPa 0,0 l/m 6,5 km/h (2 Bft) N22.5 355 0 min 0 min -3,3 C 2,4 C
22.02.2018 12:36 3,9 C 59 % 1025,7 hPa 0,0 l/m 7,9 km/h (2 Bft) N-NO67.5 15 0 min 0 min -3,4 C 1,9 C
22.02.2018 12:30 3,8 C 60 % 1025,7 hPa 0,0 l/m 8,7 km/h (2 Bft) NO45 55 0 min 0 min -3,2 C 1,5 C
22.02.2018 12:25 3,5 C 61 % 1025,7 hPa 0,0 l/m 8,6 km/h (2 Bft) N45 350 0 min 0 min -3,3 C 1,2 C
22.02.2018 12:20 3,4 C 61 % 1025,7 hPa 0,0 l/m 3,2 km/h (1 Bft) N22.5 360 0 min 0 min -3,4 C 3,4 C
22.02.2018 12:15 3,1 C 61 % 1025,7 hPa 0,0 l/m 8,9 km/h (2 Bft) N-NO67.5 20 0 min 0 min -3,7 C 0,7 C
22.02.2018 12:11 2,8 C 62 % 1025,7 hPa 0,0 l/m 0,0 km/h (0 Bft) NO 45 0 min 0 min -3,7 C 2,8 C
22.02.2018 12:06 2,7 C 62 % 1025,7 hPa 0,0 l/m 1,7 km/h (1 Bft) NO 45 0 min 0 min -3,8 C 2,7 C
22.02.2018 12:01 2,6 C 62 % 1025,7 hPa 0,0 l/m 5,4 km/h (2 Bft) NO 35 0 min 0 min -3,9 C 1,2 C
22.02.2018 11:55 2,4 C 62 % 1025,7 hPa 0,0 l/m 4,0 km/h (1 Bft) N-NO 20 0 min 0 min -4,1 C 2,4 C
22.02.2018 11:50 2,3 C 63 % 1025,7 hPa 0,0 l/m 1,2 km/h (1 Bft) N-NO 15 0 min 0 min -4,0 C 2,3 C
22.02.2018 11:45 2,2 C 63 % 1025,7 hPa 0,0 l/m 8,0 km/h (2 Bft) N22.5 350 0 min 0 min -4,1 C -0,2 C
22.02.2018 11:40 2,1 C 64 % 1025,7 hPa 0,0 l/m 11,0 km/h (2 Bft) N45 350 0 min 0 min -4,0 C -1,0 C
22.02.2018 11:35 1,9 C 65 % 1025,7 hPa 0,0 l/m 10,6 km/h (2 Bft) NO22.5 35 0 min 0 min -4,0 C -1,2 C
22.02.2018 11:31 1,7 C 65 % 1025,7 hPa 0,0 l/m 12,5 km/h (2 Bft) N-NO22.5 30 0 min 0 min -4,2 C -1,8 C
22.02.2018 11:26 1,6 C 66 % 1025,7 hPa 0,0 l/m 15,8 km/h (3 Bft) N-NO45 25 0 min 0 min -4,1 C -2,6 C
22.02.2018 11:20 1,4 C 67 % 1025,7 hPa 0,0 l/m 6,5 km/h (2 Bft) N-NO67.5 15 0 min 0 min -4,0 C -0,6 C
22.02.2018 11:15 1,3 C 68 % 1025,7 hPa 0,0 l/m 7,4 km/h (2 Bft) N 5 0 min 0 min -3,9 C -1,0 C
22.02.2018 11:10 1,2 C 68 % 1025,7 hPa 0,0 l/m 7,6 km/h (2 Bft) N-NO45 15 0 min 0 min -4,0 C -1,2 C
22.02.2018 11:05 1,0 C 69 % 1025,7 hPa 0,0 l/m 6,1 km/h (2 Bft) N-NO22.5 20 0 min 0 min -4,0 C -0,9 C
22.02.2018 11:00 0,8 C 70 % 1025,7 hPa 0,0 l/m 9,6 km/h (2 Bft) NO45 50 0 min 0 min -4,0 C -2,3 C
22.02.2018 10:56 0,7 C 70 % 1025,7 hPa 0,0 l/m 0,1 km/h (0 Bft) N-NO 15 0 min 0 min -4,1 C 0,7 C
22.02.2018 10:51 0,6 C 70 % 1025,7 hPa 0,0 l/m 5,3 km/h (1 Bft) N-NO 15 0 min 0 min -4,2 C -1,0 C
22.02.2018 10:46 0,3 C 70 % 1025,7 hPa 0,0 l/m 7,1 km/h (2 Bft) N-NO 15 0 min 0 min -4,5 C -2,1 C
22.02.2018 10:40 0,2 C 70 % 1025,7 hPa 0,0 l/m 0,9 km/h (0 Bft) N-NO 15 0 min 0 min -4,6 C 0,2 C
22.02.2018 10:35 0,0 C 70 % 1026,7 hPa 0,0 l/m 0,7 km/h (0 Bft) N-NO 15 0 min 0 min -4,8 C 0,0 C
22.02.2018 10:30 -0,2 C 70 % 1026,7 hPa 0,0 l/m 6,8 km/h (2 Bft) N-NO 15 0 min 0 min -5,0 C -2,6 C
22.02.2018 10:25 -0,3 C 71 % 1026,7 hPa 0,0 l/m 0,0 km/h (0 Bft) N-NO 15 0 min 0 min -4,9 C -0,3 C
22.02.2018 10:21 -0,4 C 71 % 1026,7 hPa 0,0 l/m 4,7 km/h (1 Bft) N-NO 15 0 min 0 min -5,0 C -1,9 C
22.02.2018 10:16 -0,5 C 71 % 1025,7 hPa 0,0 l/m 0,9 km/h (0 Bft) N-NO 15 0 min 0 min -5,1 C -0,5 C
22.02.2018 10:11 -0,7 C 71 % 1025,7 hPa 0,0 l/m 6,8 km/h (2 Bft) N-NO 15 0 min 0 min -5,3 C -3,1 C
22.02.2018 10:05 -0,9 C 71 % 1026,8 hPa 0,0 l/m 3,5 km/h (1 Bft) N-NO 15 0 min 0 min -5,5 C -0,9 C
22.02.2018 10:00 -1,1 C 71 % 1026,8 hPa 0,0 l/m 3,5 km/h (1 Bft) N-NO 15 0 min 0 min -5,7 C -1,1 C
22.02.2018 09:55 -1,2 C 71 % 1026,8 hPa 0,0 l/m 4,2 km/h (1 Bft) N-NO 15 0 min 0 min -5,8 C -1,2 C
22.02.2018 09:50 -1,3 C 71 % 1026,8 hPa 0,0 l/m 3,3 km/h (1 Bft) N-NO 15 0 min 0 min -5,9 C -1,3 C
22.02.2018 09:45 -1,3 C 71 % 1026,8 hPa 0,0 l/m 8,5 km/h (2 Bft) N-NO 15 0 min 0 min -5,9 C -4,4 C
22.02.2018 09:41 -1,3 C 71 % 1026,8 hPa 0,0 l/m 3,1 km/h (1 Bft) N-NO 15 0 min 0 min -5,9 C -1,3 C
22.02.2018 09:36 -1,5 C 71 % 1026,8 hPa 0,0 l/m 3,1 km/h (1 Bft) N-NO 15 0 min 0 min -6,1 C -1,5 C
22.02.2018 09:31 -1,6 C 71 % 1026,8 hPa 0,0 l/m 6,7 km/h (2 Bft) N 10 0 min 0 min -6,2 C -4,1 C
22.02.2018 09:25 -1,7 C 71 % 1026,8 hPa 0,0 l/m 6,8 km/h (2 Bft) N45 360 0 min 0 min -6,2 C -4,3 C
22.02.2018 09:20 -1,9 C 70 % 1026,8 hPa 0,0 l/m 3,4 km/h (1 Bft) N 10 0 min 0 min -6,6 C -1,9 C
22.02.2018 09:15 -1,9 C 70 % 1026,8 hPa 0,0 l/m 7,2 km/h (2 Bft) N 10 0 min 0 min -6,6 C -4,7 C
22.02.2018 09:10 -2,1 C 70 % 1026,8 hPa 0,0 l/m 1,3 km/h (1 Bft) N 10 0 min 0 min -6,8 C -2,1 C
22.02.2018 09:06 -2,2 C 70 % 1026,8 hPa 0,0 l/m 3,2 km/h (1 Bft) N 10 0 min 0 min -6,9 C -2,2 C
22.02.2018 09:01 -2,3 C 70 % 1026,8 hPa 0,0 l/m 6,5 km/h (2 Bft) N 10 0 min 0 min -7,0 C -4,9 C
22.02.2018 08:56 -2,4 C 70 % 1026,8 hPa 0,0 l/m 0,4 km/h (0 Bft) N 10 0 min 0 min -7,1 C -2,4 C
22.02.2018 08:50 -2,5 C 69 % 1026,8 hPa 0,0 l/m 2,9 km/h (1 Bft) N 10 0 min 0 min -7,4 C -2,5 C
22.02.2018 08:45 -2,6 C 69 % 1026,8 hPa 0,0 l/m 1,3 km/h (1 Bft) N 10 0 min 0 min -7,5 C -2,6 C
22.02.2018 08:40 -2,7 C 69 % 1026,8 hPa 0,0 l/m 1,0 km/h (0 Bft) N 10 0 min 0 min -7,6 C -2,7 C
22.02.2018 08:35 -2,8 C 69 % 1026,8 hPa 0,0 l/m 3,6 km/h (1 Bft) N 10 0 min 0 min -7,7 C -2,8 C
22.02.2018 08:31 -2,9 C 69 % 1026,8 hPa 0,0 l/m 4,6 km/h (1 Bft) N 10 0 min 0 min -7,8 C -4,7 C
22.02.2018 08:26 -3,0 C 69 % 1026,8 hPa 0,0 l/m 3,0 km/h (1 Bft) N 10 0 min 0 min -7,9 C -3,0 C
22.02.2018 08:21 -3,1 C 69 % 1026,8 hPa 0,0 l/m 0,1 km/h (0 Bft) N 10 0 min 0 min -8,0 C -3,1 C
22.02.2018 08:15 -3,2 C 68 % 1026,8 hPa 0,0 l/m 0,3 km/h (0 Bft) N 10 0 min 0 min -8,2 C -3,2 C
22.02.2018 08:10 -3,3 C 69 % 1025,8 hPa 0,0 l/m 0,0 km/h (0 Bft) N 10 0 min 0 min -8,2 C -3,3 C
22.02.2018 08:05 -3,4 C 68 % 1026,8 hPa 0,0 l/m 0,0 km/h (0 Bft) N 10 0 min 0 min -8,4 C -3,4 C
22.02.2018 08:00 -3,4 C 68 % 1026,8 hPa 0,0 l/m 0,3 km/h (0 Bft) N 10 0 min 0 min -8,4 C -3,4 C
22.02.2018 07:55 -3,4 C 68 % 1025,8 hPa 0,0 l/m 0,2 km/h (0 Bft) N 10 0 min 0 min -8,4 C -3,4 C
22.02.2018 07:51 -3,4 C 68 % 1025,8 hPa 0,0 l/m 0,0 km/h (0 Bft) N 10 0 min 0 min -8,4 C -3,4 C
22.02.2018 07:46 -3,5 C 68 % 1025,8 hPa 0,0 l/m 0,1 km/h (0 Bft) N 10 0 min 0 min -8,5 C -3,5 C
22.02.2018 07:41 -3,5 C 68 % 1025,8 hPa 0,0 l/m 0,0 km/h (0 Bft) N 10 0 min 0 min -8,5 C -3,5 C
22.02.2018 07:35 -3,5 C 68 % 1025,8 hPa 0,0 l/m 0,0 km/h (0 Bft) N 10 0 min 0 min -8,5 C -3,5 C
22.02.2018 07:30 -3,5 C 68 % 1025,8 hPa 0,0 l/m 0,0 km/h (0 Bft) N 10 0 min 0 min -8,5 C -3,5 C
22.02.2018 07:25 -3,5 C 68 % 1025,8 hPa 0,0 l/m 0,0 km/h (0 Bft) N 10 0 min 0 min -8,5 C -3,5 C
22.02.2018 07:20 -3,5 C 68 % 1025,8 hPa 0,0 l/m 0,0 km/h (0 Bft) N 10 0 min 0 min -8,5 C -3,5 C
22.02.2018 07:16 -3,5 C 68 % 1025,8 hPa 0,0 l/m 0,0 km/h (0 Bft) N 10 0 min 0 min -8,5 C -3,5 C
22.02.2018 07:11 -3,5 C 68 % 1025,8 hPa 0,0 l/m 0,0 km/h (0 Bft) N 10 0 min 0 min -8,5 C -3,5 C
22.02.2018 07:06 -3,5 C 68 % 1025,8 hPa 0,0 l/m 0,0 km/h (0 Bft) N 10 0 min 0 min -8,5 C -3,5 C
22.02.2018 07:00 -3,4 C 68 % 1025,8 hPa 0,0 l/m 0,0 km/h (0 Bft) N 10 0 min 0 min -8,4 C -3,4 C
22.02.2018 06:55 -3,4 C 68 % 1025,8 hPa 0,0 l/m 0,0 km/h (0 Bft) N 10 0 min 0 min -8,4 C -3,4 C
22.02.2018 06:50 -3,4 C 68 % 1025,8 hPa 0,0 l/m 0,0 km/h (0 Bft) N 10 0 min 0 min -8,4 C -3,4 C
22.02.2018 06:45 -3,4 C 68 % 1025,8 hPa 0,0 l/m 0,0 km/h (0 Bft) N 10 0 min 0 min -8,4 C -3,4 C
22.02.2018 06:40 -3,4 C 67 % 1025,8 hPa 0,0 l/m 0,0 km/h (0 Bft) N 10 0 min 0 min -8,6 C -3,4 C
22.02.2018 06:36 -3,3 C 67 % 1025,8 hPa 0,0 l/m 0,3 km/h (0 Bft) N 10 0 min 0 min -8,5 C -3,3 C
22.02.2018 06:31 -3,3 C 67 % 1025,8 hPa 0,0 l/m 0,1 km/h (0 Bft) N 10 0 min 0 min -8,5 C -3,3 C
22.02.2018 06:26 -3,3 C 67 % 1025,8 hPa 0,0 l/m 0,3 km/h (0 Bft) N 10 0 min 0 min -8,5 C -3,3 C
22.02.2018 06:20 -3,2 C 67 % 1025,8 hPa 0,0 l/m 0,1 km/h (0 Bft) N 10 0 min 0 min -8,4 C -3,2 C
22.02.2018 06:15 -3,1 C 67 % 1025,8 hPa 0,0 l/m 0,6 km/h (0 Bft) N 10 0 min 0 min -8,3 C -3,1 C
22.02.2018 06:10 -3,1 C 67 % 1025,8 hPa 0,0 l/m 0,3 km/h (0 Bft) N 10 0 min 0 min -8,3 C -3,1 C
22.02.2018 06:05 -3,0 C 67 % 1025,8 hPa 0,0 l/m 0,0 km/h (0 Bft) N 10 0 min 0 min -8,2 C -3,0 C
22.02.2018 06:00 -3,0 C 67 % 1025,8 hPa 0,0 l/m 0,0 km/h (0 Bft) N 10 0 min 0 min -8,2 C -3,0 C
22.02.2018 05:56 -3,0 C 67 % 1025,8 hPa 0,0 l/m 0,0 km/h (0 Bft) N 10 0 min 0 min -8,2 C -3,0 C
22.02.2018 05:51 -2,9 C 67 % 1025,8 hPa 0,0 l/m 0,1 km/h (0 Bft) N 10 0 min 0 min -8,1 C -2,9 C
22.02.2018 05:46 -2,8 C 67 % 1025,8 hPa 0,0 l/m 0,0 km/h (0 Bft) N 10 0 min 0 min -8,1 C -2,8 C
22.02.2018 05:40 -2,8 C 67 % 1025,8 hPa 0,0 l/m 0,0 km/h (0 Bft) N 10 0 min 0 min -8,1 C -2,8 C
22.02.2018 05:35 -2,8 C 67 % 1025,8 hPa 0,0 l/m 0,0 km/h (0 Bft) N 10 0 min 0 min -8,1 C -2,8 C
22.02.2018 05:30 -2,8 C 67 % 1025,8 hPa 0,0 l/m 0,0 km/h (0 Bft) N 10 0 min 0 min -8,1 C -2,8 C
22.02.2018 05:25 -2,8 C 67 % 1025,8 hPa 0,0 l/m 0,0 km/h (0 Bft) N 10 0 min 0 min -8,1 C -2,8 C
22.02.2018 05:20 -2,7 C 67 % 1025,8 hPa 0,0 l/m 0,0 km/h (0 Bft) N 10 0 min 0 min -8,0 C -2,7 C
22.02.2018 05:16 -2,7 C 67 % 1025,8 hPa 0,0 l/m 0,0 km/h (0 Bft) N 10 0 min 0 min -8,0 C -2,7 C
22.02.2018 05:11 -2,7 C 67 % 1025,8 hPa 0,0 l/m 0,0 km/h (0 Bft) N 10 0 min 0 min -8,0 C -2,7 C
22.02.2018 05:06 -2,7 C 67 % 1025,8 hPa 0,0 l/m 0,0 km/h (0 Bft) N 10 0 min 0 min -8,0 C -2,7 C
22.02.2018 05:00 -2,7 C 67 % 1025,8 hPa 0,0 l/m 0,0 km/h (0 Bft) N 10 0 min 0 min -8,0 C -2,7 C
22.02.2018 04:55 -2,7 C 67 % 1025,8 hPa 0,0 l/m 0,0 km/h (0 Bft) N 10 0 min 0 min -8,0 C -2,7 C
22.02.2018 04:50 -2,7 C 67 % 1025,8 hPa 0,0 l/m 0,0 km/h (0 Bft) N 10 0 min 0 min -8,0 C -2,7 C
22.02.2018 04:45 -2,6 C 67 % 1025,8 hPa 0,0 l/m 0,0 km/h (0 Bft) N 10 0 min 0 min -7,9 C -2,6 C
22.02.2018 04:40 -2,6 C 67 % 1025,8 hPa 0,0 l/m 0,0 km/h (0 Bft) N 10 0 min 0 min -7,9 C -2,6 C
22.02.2018 04:36 -2,6 C 67 % 1025,8 hPa 0,0 l/m 0,0 km/h (0 Bft) N 10 0 min 0 min -7,9 C -2,6 C
22.02.2018 04:31 -2,6 C 67 % 1025,8 hPa 0,0 l/m 0,0 km/h (0 Bft) N 10 0 min 0 min -7,9 C -2,6 C
22.02.2018 04:26 -2,6 C 67 % 1025,8 hPa 0,0 l/m 0,0 km/h (0 Bft) N 10 0 min 0 min -7,9 C -2,6 C
22.02.2018 04:20 -2,5 C 67 % 1025,8 hPa 0,0 l/m 0,0 km/h (0 Bft) N 10 0 min 0 min -7,8 C -2,5 C
22.02.2018 04:15 -2,5 C 67 % 1025,8 hPa 0,0 l/m 0,0 km/h (0 Bft) N 10 0 min 0 min -7,8 C -2,5 C
22.02.2018 04:10 -2,5 C 67 % 1025,8 hPa 0,0 l/m 0,0 km/h (0 Bft) N 10 0 min 0 min -7,8 C -2,5 C
22.02.2018 04:05 -2,5 C 67 % 1025,8 hPa 0,0 l/m 0,0 km/h (0 Bft) N 10 0 min 0 min -7,8 C -2,5 C
22.02.2018 04:00 -2,4 C 66 % 1025,8 hPa 0,0 l/m 0,0 km/h (0 Bft) N 10 0 min 0 min -7,9 C -2,4 C
22.02.2018 03:55 -2,4 C 66 % 1025,8 hPa 0,0 l/m 0,0 km/h (0 Bft) N 10 0 min 0 min -7,9 C -2,4 C
22.02.2018 03:51 -2,3 C 66 % 1025,8 hPa 0,0 l/m 0,0 km/h (0 Bft) N 10 0 min 0 min -7,8 C -2,3 C
22.02.2018 03:46 -2,3 C 66 % 1025,8 hPa 0,0 l/m 0,0 km/h (0 Bft) N 10 0 min 0 min -7,8 C -2,3 C
22.02.2018 03:41 -2,3 C 66 % 1025,8 hPa 0,0 l/m 0,1 km/h (0 Bft) N 10 0 min 0 min -7,8 C -2,3 C
22.02.2018 03:35 -2,2 C 66 % 1025,8 hPa 0,0 l/m 0,3 km/h (0 Bft) N 10 0 min 0 min -7,7 C -2,2 C
22.02.2018 03:30 -2,2 C 66 % 1025,8 hPa 0,0 l/m 0,1 km/h (0 Bft) N 10 0 min 0 min -7,7 C -2,2 C
22.02.2018 03:25 -2,2 C 66 % 1025,8 hPa 0,0 l/m 0,3 km/h (0 Bft) N 10 0 min 0 min -7,7 C -2,2 C
22.02.2018 03:20 -2,1 C 66 % 1025,8 hPa 0,0 l/m 0,1 km/h (0 Bft) N 10 0 min 0 min -7,6 C -2,1 C
22.02.2018 03:15 -2,0 C 66 % 1025,8 hPa 0,0 l/m 0,4 km/h (0 Bft) N 10 0 min 0 min -7,5 C -2,0 C
22.02.2018 03:11 -2,0 C 66 % 1025,8 hPa 0,0 l/m 0,0 km/h (0 Bft) N 10 0 min 0 min -7,5 C -2,0 C
22.02.2018 03:06 -2,0 C 65 % 1025,8 hPa 0,0 l/m 0,0 km/h (0 Bft) N 10 0 min 0 min -7,7 C -2,0 C
22.02.2018 03:01 -1,9 C 65 % 1025,8 hPa 0,0 l/m 0,0 km/h (0 Bft) N 10 0 min 0 min -7,6 C -1,9 C
22.02.2018 02:55 -1,9 C 65 % 1025,8 hPa 0,0 l/m 0,2 km/h (0 Bft) N 10 0 min 0 min -7,6 C -1,9 C
22.02.2018 02:50 -1,9 C 65 % 1025,8 hPa 0,0 l/m 0,0 km/h (0 Bft) N 10 0 min 0 min -7,6 C -1,9 C
22.02.2018 02:45 -1,8 C 65 % 1025,8 hPa 0,0 l/m 0,3 km/h (0 Bft) N 10 0 min 0 min -7,5 C -1,8 C
22.02.2018 02:40 -1,8 C 65 % 1025,8 hPa 0,0 l/m 0,2 km/h (0 Bft) N 10 0 min 0 min -7,5 C -1,8 C
22.02.2018 02:35 -1,8 C 65 % 1025,8 hPa 0,0 l/m 0,0 km/h (0 Bft) N 10 0 min 0 min -7,5 C -1,8 C
22.02.2018 02:31 -1,8 C 65 % 1026,8 hPa 0,0 l/m 0,6 km/h (0 Bft) N 10 0 min 0 min -7,5 C -1,8 C
22.02.2018 02:26 -1,7 C 64 % 1026,8 hPa 0,0 l/m 2,9 km/h (1 Bft) N 10 0 min 0 min -7,6 C -1,7 C
22.02.2018 02:21 -1,7 C 64 % 1026,8 hPa 0,0 l/m 0,5 km/h (0 Bft) N 10 0 min 0 min -7,6 C -1,7 C
22.02.2018 02:15 -1,8 C 64 % 1025,8 hPa 0,0 l/m 1,0 km/h (0 Bft) N 10 0 min 0 min -7,7 C -1,8 C
22.02.2018 02:10 -1,8 C 64 % 1025,8 hPa 0,0 l/m 0,7 km/h (0 Bft) N 10 0 min 0 min -7,7 C -1,8 C
22.02.2018 02:05 -1,7 C 63 % 1026,8 hPa 0,0 l/m 0,3 km/h (0 Bft) N 10 0 min 0 min -7,8 C -1,7 C
22.02.2018 02:00 -1,7 C 63 % 1026,8 hPa 0,0 l/m 0,3 km/h (0 Bft) N 10 0 min 0 min -7,8 C -1,7 C
22.02.2018 01:55 -1,7 C 63 % 1025,8 hPa 0,0 l/m 0,0 km/h (0 Bft) N 10 0 min 0 min -7,8 C -1,7 C
22.02.2018 01:51 -1,6 C 63 % 1025,8 hPa 0,0 l/m 0,0 km/h (0 Bft) N 10 0 min 0 min -7,7 C -1,6 C
22.02.2018 01:46 -1,6 C 63 % 1025,8 hPa 0,0 l/m 0,0 km/h (0 Bft) N 10 0 min 0 min -7,7 C -1,6 C
22.02.2018 01:41 -1,6 C 63 % 1025,8 hPa 0,0 l/m 0,0 km/h (0 Bft) N 10 0 min 0 min -7,7 C -1,6 C
22.02.2018 01:36 -1,5 C 62 % 1025,8 hPa 0,0 l/m 0,0 km/h (0 Bft) N 10 0 min 0 min -7,8 C -1,5 C
22.02.2018 01:30 -1,4 C 62 % 1025,8 hPa 0,0 l/m 0,3 km/h (0 Bft) N 10 0 min 0 min -7,7 C -1,4 C
22.02.2018 01:25 -1,4 C 62 % 1025,8 hPa 0,0 l/m 0,0 km/h (0 Bft) N 10 0 min 0 min -7,7 C -1,4 C
22.02.2018 01:20 -1,3 C 62 % 1025,8 hPa 0,0 l/m 0,2 km/h (0 Bft) N 10 0 min 0 min -7,6 C -1,3 C
22.02.2018 01:15 -1,3 C 62 % 1025,8 hPa 0,0 l/m 0,3 km/h (0 Bft) N 10 0 min 0 min -7,6 C -1,3 C
22.02.2018 01:10 -1,2 C 61 % 1025,8 hPa 0,0 l/m 0,1 km/h (0 Bft) N 10 0 min 0 min -7,7 C -1,2 C
22.02.2018 01:06 -1,1 C 61 % 1025,8 hPa 0,0 l/m 0,0 km/h (0 Bft) N 10 0 min 0 min -7,6 C -1,1 C
22.02.2018 01:01 -1,1 C 61 % 1025,8 hPa 0,0 l/m 0,0 km/h (0 Bft) N 10 0 min 0 min -7,6 C -1,1 C
22.02.2018 00:56 -1,0 C 61 % 1025,8 hPa 0,0 l/m 0,0 km/h (0 Bft) N 10 0 min 0 min -7,5 C -1,0 C
22.02.2018 00:51 -0,9 C 60 % 1025,8 hPa 0,0 l/m 0,1 km/h (0 Bft) N 10 0 min 0 min -7,7 C -0,9 C
22.02.2018 00:45 -0,9 C 60 % 1025,8 hPa 0,0 l/m 0,3 km/h (0 Bft) N 10 0 min 0 min -7,7 C -0,9 C
22.02.2018 00:40 -0,8 C 60 % 1025,7 hPa 0,0 l/m 0,0 km/h (0 Bft) N 10 0 min 0 min -7,6 C -0,8 C
22.02.2018 00:35 -0,7 C 60 % 1025,7 hPa 0,0 l/m 0,4 km/h (0 Bft) N 10 0 min 0 min -7,5 C -0,7 C
22.02.2018 00:30 -0,7 C 60 % 1025,7 hPa 0,0 l/m 0,0 km/h (0 Bft) N 10 0 min 0 min -7,5 C -0,7 C
22.02.2018 00:25 -0,6 C 60 % 1025,7 hPa 0,0 l/m 0,5 km/h (0 Bft) N 10 0 min 0 min -7,4 C -0,6 C
22.02.2018 00:21 -0,5 C 60 % 1025,7 hPa 0,0 l/m 0,0 km/h (0 Bft) N 10 0 min 0 min -7,3 C -0,5 C
22.02.2018 00:16 -0,5 C 60 % 1025,7 hPa 0,0 l/m 0,0 km/h (0 Bft) N 10 0 min 0 min -7,3 C -0,5 C
22.02.2018 00:11 -0,4 C 59 % 1025,7 hPa 0,0 l/m 0,1 km/h (0 Bft) N 10 0 min 0 min -7,4 C -0,4 C
22.02.2018 00:05 -0,4 C 59 % 1025,7 hPa 0,0 l/m 0,1 km/h (0 Bft) N 10 0 min 0 min -7,4 C -0,4 C
22.02.2018 00:01 -0,2 C 59 % 1025,7 hPa 0,0 l/m 0,1 km/h (0 Bft) N 10 0 min 0 min -7,2 C -0,2 C
_ Min-Zeit 07:06 14:31 14:01 - 00:16 - - - - 06:40 09:01
Minimum _ -3,5 C 51 % 1024,7 hPa - 0,0 km/h (0 Bft) - - - - -8,6 C -4,9 C
_ Max-Zeit 12:41 09:25 08:00 00:01 11:26 - - 00:01 00:01 12:30 13:45
Maximum _ 4,0 C 71 % 1026,8 hPa 0,0 l/m 15,8 km/h
N-NO (3 Bft)
- - 0 min 0 min -3,2 C 3,8 C
Durchschnitt _ -0,1 C 62 % 1025,6 hPa #0,0 l/m 3,1 km/h (1 Bft) N - #0 min. #0 min. -6,6 C -0,8 C